sat.trackr.live / text

‹ back to catalog

STARLINK-34139

NORAD 63975 · 2025-099Z

PAYLOAD ACTIVE UNKNOWN

§ Identity

Operator
Country
US
Launch date
2025-05-13
Launch site
AFETR
Launch vehicle
Mass (kg)
RCS (m²)

Purposes: comms

External: N2YO · Heavens-Above · Gunter

§ Orbital elements

Epoch: 2026-09-20T09:39:41.899392Z

Period
94.27 min
Inclination
42.9995°
Eccentricity
0.0001152
Mean motion
15.27594502 rev/d
Perigee alt
482.2 km
Apogee alt
483.8 km
Semi-major
6,861.1 km
B*
7.0526e-4
RAAN
153.2399°
Arg perigee
58.6454°
Mean anomaly
301.4510°
Rev number
7,706

§ Raw data

STARLINK-341391 63975U 25099Z   26263.40256828  .00019204  00000+0  70526-3 0  99972 63975  42.9995 153.2399 0001152  58.6454 301.4510 15.27594502 77067

JSON: /api/v1/satellites/63975 · /tle

For live sub-satellite position, see the globe view (requires WebGL).

§ Visibility from observer

Set your observer location to see the next 7 days of passes ≥ 10°. The values pass through the URL so the page stays shareable.

No JS? Fill the form by hand. The geolocation button needs JavaScript.